If you wish to contribute or participate in the discussions about articles you are invited to join SKYbrary as a registered user

 Actions

Carajás Airport

From SKYbrary Wiki

SBCJ
Airport
ICAO: SBCJ – IATA: CKS
Summary
Name Carajás Airport
Region South America and Caribbean
Territory Brazil BR.gif
Location Carajás, Para
Serving Parauapebas
Elevation 629.107 m
2,064 ft629.107 m
Coordinates 6° 6' 55.01" S, 50° 0' 5.00" W
Runways
Designator Length Width Surface ROPS
10/28 2000 m6,561.68 ft
45 m147.638 ft
ASP /


METAR
Observation SBCJ 151900Z 01002KT 9999 FEW027TCU 27/23 Q1012
Station Carajas / Maraba
Date/Time 15 December 2019 19:00:00
Wind direction 10°
Wind speed 02 kts
Lowest cloud amount few clouds
Temperature 27°C
Dew point 23°C
Humidity 78%
QNH 1012 hPa
Weather condition n/a

Carajás Airport is the airport serving Parauapebas, Brazil.

Climatology

Tropical savannah climate (Köppen climate classification Aw)

Maps

Terrain

Loading map...

Airport Layout

Loading map...


Accidents & Serious Incidents at or in vicinity of SBCJ

None on SKYbrary